Simultaneous Nadir Overpasses (SNOs) Predictions

Prediction of SNOs between AQUA and NOAA-19 Satellite Orbit:

Table of predicted SNOs for the next 14.0 days since TLE Epoch: 9/11/2021
Index Date (AQUA) Time (AQUA) Lat,Lon (AQUA) SZA (AQUA ) Date (NOAA-19) Time (NOAA-19) Lat,Lon (NOAA-19) SZA (NOAA-19 ) Distance(km) Time Diff (sec)
1 09/11/2021 16:58:56 78.49, -95.71 74.87 09/11/2021 16:57:52 78.50, -95.68 74.89 0.73 64
2 09/11/2021 17:48:23 -78.52, 71.78 105.08 09/11/2021 17:48:49 -78.54, 71.87 105.08 2.89 26
3 09/13/2021 23:22:07 78.51, 168.42 75.74 09/13/2021 23:21:59 78.50, 168.41 75.74 0.73 8
4 09/16/2021 04:55:50 -78.47, -94.81 103.47 09/16/2021 04:55:04 -78.47, -94.97 103.44 3.55 46
5 09/16/2021 05:45:18 78.53, 72.52 76.62 09/16/2021 05:46:06 78.51, 72.49 76.59 2.75 48
6 09/18/2021 10:29:28 78.22, 3.03 77.06 09/18/2021 10:28:22 78.17, -0.10 77.26 71.26 66
7 09/18/2021 11:19:01 -78.49, 169.28 102.58 09/18/2021 11:19:10 -78.49, 169.23 102.58 1.05 9
8 09/20/2021 16:52:44 78.46, -93.99 78.23 09/20/2021 16:52:20 78.49, -93.97 78.27 3.61 24
9 09/20/2021 17:42:12 -78.52, 73.34 101.68 09/20/2021 17:43:16 -78.51, 73.43 101.71 2.15 64
10 09/22/2021 22:26:28 -78.47, 2.51 100.90 09/22/2021 22:25:24 -78.45, 2.58 100.91 2.79 64
11 09/22/2021 23:15:55 78.50, 170.02 79.15 09/22/2021 23:16:27 78.49, 170.05 79.13 1.28 32
12 09/25/2021 04:49:38 -78.47, -93.27 100.04 09/25/2021 04:49:30 -78.47, -93.24 100.04 0.77 8



Historial Predications of SNOs between AQUA and NOAA-19
